Tracking 20036 objects as of 21-Nov-2019
Live streaming from Space Station
objects crossing your sky now

THORAD AGENA D DEB

Track THORAD AGENA D DEB now!
10-day predictions


NORAD ID: 4276
Int'l Code: 1969-082DK
Perigee: 648.0 km
Apogee: 686.3 km
Inclination: 70.1 °
Period: 97.9 minutes
Semi major axis: 7038 km
RCS: 0.039 m2 (small)
Launch date: September 30, 1969
Source: United States (US)
Launch site: AIR FORCE WESTERN TEST RANGE (AFWTR)

Note: This is SATELLITE DEBRIS
aabbcc
Your satellite tracking list
Your tracking list is empty




NASA's NSSDC Master Catalog

Two Line Element Set (TLE):
1  4276U 69082DK  19325.13765593  .00000579  00000-0  10726-3 0  9993
2  4276  70.0643  61.0131 0027205 203.4030 156.5879 14.70339634626871
Source of the keplerian elements: AFSPC